This demonstration page uses our WeatherBlox Daily Observations layout. Learn more.

Left ArrowRight Arrow

Hourly Observations for January 4, 2017

Temp ( °F °C ) Dew Point ( °F °C ) Humidity (%) Winds ( mph kmh ) Pressure ( in mb ) Visibility ( mi km ) Precip ( " mm )
12:17 am 00:17 Cloudy with Rain 43 6 43 6 100 100 WNW 6 9 29.77 1008 3 5 0.00 0.00
12:49 am 00:49 Cloudy with Rain 45 7 45 7 100 100 VRB 6 9 29.80 1009 3 4 0.14 3.56
12:53 am 00:53 Cloudy with Rain 44 6.7 44 6.7 100 100 W 7 11 29.75 1008 3 5 0.15 3.81
1:53 am 01:53 Cloudy with Light Rain 48 8.9 47 8.3 96 96 SSW 16 26 29.76 1008 10 16 0.09 2.29
2:25 am 02:25 Cloudy 48 8.9 48 8.9 100 100 SSW 14 22 29.80 1009 10 16 0.01 0.25
2:53 am 02:53 Cloudy 48 8.9 48 8.9 100 100 SSW 16 26 29.78 1008 10 16 0.01 0.25
3:53 am 03:53 Cloudy 48 8.9 48 8.9 100 100 SSW 10 17 29.79 1009 10 16 0.00 0.00
4:53 am 04:53 Cloudy 48 8.9 48 8.9 100 100 S 10 17 29.80 1009 9 14 0.00 0.00
5:39 am 05:39 Cloudy with Mist and Fog 48 8.9 47 8.3 96 96 S 14 22 29.83 1010 2 3 0.00 0.00
5:53 am 05:53 Cloudy with Mist and Fog 48 8.9 47 8.3 96 96 S 12 19 29.79 1009 2 3 0.00 0.00
6:06 am 06:06 Cloudy with Mist and Fog 48 8.9 48 8.9 100 100 S 10 17 29.83 1010 4 6 0.00 0.00
6:53 am 06:53 Cloudy 47 8.3 47 8.3 100 100 SSW 9 15 29.83 1010 8 13 0.00 0.00
7:44 am 07:44 Mostly Cloudy 46 8 45 7 93 93 S 10 17 29.85 1011 10 16 0.00 0.00
7:53 am 07:53 Mostly Cloudy 47 8.3 45 7.2 93 93 S 8 13 29.85 1011 10 16 0.00 0.00
8:53 am 08:53 Mostly Sunny 47 8.3 43 6.1 86 86 S 8 13 29.88 1012 10 16 0.00 0.00
9:53 am 09:53 Sunny 48 8.9 40 4.4 74 74 Calm 29.93 1013 10 16 0.00 0.00
10:53 am 10:53 Sunny 49 9.4 39 3.9 69 69 Calm 29.93 1014 10 16 0.00 0.00
11:53 am 11:53 Sunny 50 10 35 1.7 57 57 NNW 6 9 29.93 1013 10 16 0.00 0.00
12:53 pm 12:53 Sunny 50 10 33 0.6 52 52 NW 7 11 29.92 1013 10 16 0.00 0.00
1:53 pm 13:53 Sunny 50 10 32 0 50 50 WNW 6 9 29.92 1013 10 16 0.00 0.00
2:53 pm 14:53 Sunny 50 10 31 -0.6 48 48 N 5 7 29.93 1013 10 16 0.00 0.00
3:53 pm 15:53 Sunny 49 9.4 29 -1.7 46 46 W 6 9 29.92 1013 10 16 0.00 0.00
4:53 pm 16:53 Sunny 47 8.3 30 -1.1 52 52 Calm 29.92 1013 10 16 0.00 0.00
5:53 pm 17:53 Clear 45 7.2 28 -2.2 52 52 NW 3 6 29.92 1013 10 16 0.00 0.00
6:53 pm 18:53 Mostly Clear 39 3.9 31 -0.6 73 73 Calm 29.93 1014 10 16 0.00 0.00
7:53 pm 19:53 Clear 37 2.8 30 -1.1 76 76 N 6 9 29.94 1014 10 16 0.00 0.00
8:53 pm 20:53 Clear 39 3.9 30 -1.1 70 70 N 7 11 29.94 1014 10 16 0.00 0.00
9:53 pm 21:53 Cloudy 39 3.9 32 0 76 76 NNW 5 7 29.95 1014 10 16 0.00 0.00
10:53 pm 22:53 Cloudy 39 3.9 31 -0.6 73 73 NNW 5 7 29.96 1015 10 16 0.00 0.00
11:53 pm 23:53 Mostly Cloudy 39 3.9 31 -0.6 73 73 WNW 5 7 29.96 1015 10 16 0.00 0.00

Powered by AerisWeather